Starlink 31681

operational
NORAD ID: 59746 Int'l Des: 2024-090 Owner: SPXS Country: US Constellation: starlink
LEOCIRCULAR

About Starlink 31681

Description loading...

Live Position

Loading 3D Globe...

Upcoming Passes

Altitude History

Altitude vs Time

uPlot chart will show altitude changes over time

Two-Line Element Set

1 59746U 24090S 25351.19309199 .00003986 00000-0 15434-3 0 9999
2 59746 43.0049 282.4473 0000832 314.6118 45.4666 15.27571954 90905
Epoch: Dec 17, 2025 • Age: 12 hours

Current Status

Altitude 484.7 km
Velocity 7.63 km/s
Sub-Earth Point 32.71°N, 87.33°E
Launch Date May 13, 2024
Age 1.5 years
Type internet

Technical Details

Classification Payload
Mass 730.00 kg
Dry Mass 700.00 kg
Total Mass 730.00 kg
Length 0.30 m
Diameter 4.10 m
Span 29.00 m
Shape Box + pan
Manufacturer SPXS
Bus Type Starlink V2M
Phase Status In Orbit
Owner/State SPXS/US

Large Constellations

Loading constellations...